Location: Zagreb
(45.8000°N, 16.0000°E)
Time: 00:47:28
(UTC+01:00)

Transit 4A - Visible Passes

Search period start: 26 January 2020 00:00
Search period end: 05 February 2020 00:00
Orbit: 872 x 973 km, 66.8° (Epoch: 25 January)

Date Brightness Start Highest point End Pass type
(mag) Time Alt. Az. Time Alt. Az. Time Alt. Az.
26 Jan 9.4 05:30:07 10° S 05:35:33 36° ESE 05:40:54 10° NE visible
27 Jan 8.7 05:38:55 10° S 05:44:45 53° ESE 05:50:28 10° NE visible
28 Jan 10.7 04:06:16 10° SE 04:08:38 12° ESE 04:10:58 10° ENE visible
28 Jan 8.0 05:47:59 10° SSW 05:54:00 76° ESE 05:59:54 10° NE visible
29 Jan 10.2 04:13:32 10° SSE 04:17:38 19° ESE 04:21:40 10° ENE visible
29 Jan 7.7 05:57:19 10° SW 06:03:19 78° WNW 06:09:15 10° NNE visible
30 Jan 9.6 04:21:41 10° SSE 04:26:42 28° ESE 04:31:39 10° NE visible
30 Jan 7.9 06:06:51 10° SW 06:12:44 56° NW 06:18:31 10° NNE visible
31 Jan 8.9 04:30:58 13° S 04:35:50 41° ESE 04:41:20 10° NE visible
31 Jan 8.3 06:16:36 10° WSW 06:22:13 40° NW 06:27:45 10° NNE visible
01 Feb 8.2 04:41:51 27° S 04:45:03 60° ESE 04:50:51 10° NE visible
01 Feb 8.6 06:26:34 10° WSW 06:31:46 30° NW 06:36:55 10° NNE visible
02 Feb 10.3 03:08:36 15° ESE 03:08:51 15° ESE 03:11:57 10° ENE visible
02 Feb 7.7 04:52:12 42° SSW 04:54:20 85° ESE 05:00:15 10° NE visible
02 Feb 9.0 06:36:44 10° W 06:41:25 23° NW 06:46:03 10° NNE visible
03 Feb 9.9 03:18:39 22° E 03:18:39 22° E 03:22:17 10° ENE visible
03 Feb 7.7 05:02:12 50° WSW 05:03:42 69° NW 05:09:34 10° NNE visible
04 Feb 9.5 03:28:27 29° E 03:28:27 29° E 03:32:09 10° NE visible
04 Feb 8.0 05:12:00 44° W 05:13:07 49° NW 05:18:50 10° NNE visible
